GW1629 Weather Reports


time (UTC)temp
C
wind
direction
speed
KPH
gust
KPH
rain 1hr
cm
rain 24hr
cm
rain mn
cm
humidity
%
barometer
mb
20260505181520 11 0.0 0.0 0.00 2.11 1.78 97 1014.4
20260505180519 12 0.0 0.0 0.00 2.11 1.78 97 1014.3
20260505175524 12 0.0 0.0 0.00 2.11 1.78 97 1014.5
20260505174519 12 0.0 0.0 0.00 2.11 1.78 97 1014.5
20260505173515 12 0.0 0.0 0.00 2.11 1.78 97 1014.5
20260505172522 13 0.0 0.0 0.00 2.21 1.78 97 1014.5
20260505171517 13 135 0.0 4.8 0.00 2.21 1.78 97 1014.5
20260505170515 12 0.0 0.0 0.00 2.21 1.78 97 1014.5
20260505165516 12 0.0 0.0 0.00 2.21 1.78 97 1014.5
20260505164516 12 0.0 0.0 0.00 2.21 1.78 97 1014.5
20260505163523 13 0.0 0.0 0.00 2.21 1.78 97 1014.5
20260505162521 13 0.0 0.0 0.00 2.21 1.78 97 1014.5
20260505161524 13 0.0 0.0 0.00 2.21 1.78 97 1014.5
20260505160542 13 0.0 0.0 0.00 2.21 1.78 97 1014.5
20260505152518 15 0.0 0.0 0.00 2.21 1.78 97 1014.5
20260505151521 16 135 0.0 3.2 0.00 2.21 1.78 97 1014.5
20260505150538 18 153 0.0 3.2 0.00 2.21 1.78 97 1014.5
20260505140523 17 0.0 0.0 0.00 2.21 1.78 97 1014.5
20260505124520 16 149 6.4 12.9 0.00 2.21 1.78 97 1014.5
20260505123519 15 158 1.6 6.4 0.00 2.21 1.78 97 1014.5
20260505122543 14 0.0 0.0 0.00 2.21 1.78 97 1014.5
20260505121518 14 158 0.0 4.8 0.00 2.21 1.78 97 1014.5
20260505120516 14 135 0.0 4.8 0.00 2.21 1.78 97 1014.5
20260505115524 14 0.0 0.0 0.00 2.21 1.78 97 1014.7
20260505114517 15 0.0 0.0 0.00 2.21 1.78 97 1014.5
20260505113523 15 0.0 0.0 0.00 2.21 1.78 97 1014.5
20260505112522 16 140 1.6 9.7 0.00 2.21 1.78 97 1014.5
20260505111525 16 150 3.2 9.7 0.00 2.21 1.78 97 1014.5
20260505110521 15 138 3.2 8.0 0.00 2.21 1.78 97 1014.5
20260505101522 15 132 3.2 11.3 0.00 2.21 1.78 97 1014.5
20260505100519 15 150 0.0 4.8 0.00 2.21 1.78 97 1014.5
20260505095516 15 155 1.6 12.9 0.00 2.21 1.78 97 1014.9
20260505094519 15 178 3.2 11.3 0.00 2.21 1.78 97 1014.9
20260505093518 15 138 3.2 9.7 0.00 2.21 1.78 97 1014.5
20260505092525 15 151 1.6 6.4 0.00 2.21 1.78 97 1014.5
20260505091538 13 158 1.6 9.7 0.00 2.21 1.78 97 1014.5
20260505090525 14 145 1.6 8.0 0.00 2.21 1.78 97 1014.5
20260505085523 14 148 1.6 6.4 0.00 2.21 1.78 97 1014.5
20260505084516 13 131 0.0 6.4 0.00 2.21 1.78 97 1014.5
20260505083524 13 142 1.6 6.4 0.00 2.21 1.78 97 1014.5
20260505082521 13 140 1.6 6.4 0.00 2.21 1.78 97 1014.5
20260505081525 12 158 0.0 3.2 0.00 2.21 1.78 93 1014.5
20260505080523 12 0.0 0.0 0.00 2.21 1.78 87 1014.5
20260505075517 11 158 0.0 3.2 0.00 2.21 1.78 83 1014.5
20260505074523 11 135 0.0 6.4 0.00 2.21 1.78 87 1014.5
20260505073519 11 140 0.0 4.8 0.10 2.21 1.78 93 1014.5
20260505072517 12 158 0.0 4.8 0.10 2.21 1.78 93 1014.5
20260505071521 11 138 3.2 9.7 0.10 2.21 1.78 89 1014.5
20260505070540 11 151 1.6 6.4 0.10 2.21 1.78 82 1014.4
20260505065605 11 141 3.2 14.5 0.10 2.21 1.78 76 1014.5
20260505064520 11 0.0 0.0 0.10 2.21 1.78 73 1014.3
20260505063516 11 0.0 0.0 0.00 2.08 1.68 59 1013.8
20260505062545 11 0.0 0.0 0.00 2.08 1.68 52 1013.7
20260505061518 11 135 0.0 3.2 0.00 2.08 1.68 55 1013.5
20260505060606 11 135 0.0 3.2 0.00 2.08 1.68 51 1013.5
20260505055523 11 0.0 0.0 0.00 2.08 1.68 47 1013.5
20260505054516 10 0.0 0.0 0.00 2.08 1.68 47 1013.5
20260505053525 10 0.0 0.0 0.10 2.08 1.68 47 1013.5
20260505052524 10 0.0 0.0 0.43 2.08 1.68 47 1013.5
20260505051525 10 0.0 0.0 0.43 2.08 1.68 47 1013.5
20260505050522 10 0.0 0.0 0.43 2.08 1.68 50 1013.5
20260505041541 10 0.0 0.0 0.00 1.68 1.27 54 1013.5
20260505040522 10 0.0 0.0 0.10 1.68 1.27 55 1013.5
20260505035538 10 0.0 0.0 0.10 1.68 1.27 56 1013.5
20260505034523 10 0.0 0.0 0.10 1.68 1.27 56 1013.5
20260505033520 10 0.0 0.0 0.10 1.68 1.27 57 1013.5
20260505032525 10 0.0 0.0 0.10 1.68 1.27 58 1013.5
20260505031519 10 0.0 0.0 0.10 1.68 1.27 59 1013.7
20260505030518 10 0.0 0.0 0.00 1.57 1.14 61 1013.6
20260505025523 10 0.0 0.0 0.00 1.57 1.14 63 1013.5
20260505024537 10 180 0.0 4.8 0.10 1.57 1.14 69 1013.5
20260505023525 10 0.0 0.0 0.10 1.57 1.14 77 1013.5
20260505022522 10 0.0 0.0 0.20 1.57 1.14 82 1013.5
20260505021517 10 285 1.6 11.3 0.43 1.57 1.14 87 1014.1
20260505020521 10 335 1.6 11.3 0.53 1.57 1.14 91 1013.7
20260505015519 10 0.0 0.0 0.64 1.57 1.14 92 1014.4
20260505014524 10 84 1.6 11.3 0.64 1.47 1.04 97 1014.5
20260505013540 10 36 6.4 9.7 0.74 1.47 1.04 92 1014.2
20260505012516 10 45 3.2 9.7 0.74 1.35 0.94 64 1014.4
20260505011523 10 203 0.0 4.8 0.53 1.14 0.74 60 1014.5
20260505010520 10 203 0.0 4.8 0.53 1.04 0.64 62 1014.5
20260505005518 10 203 0.0 8.0 0.53 0.94 0.53 64 1015.2
20260505004541 10 0.0 0.0 0.41 0.84 0.41 65 1015.0
20260505003521 10 0.0 0.0 0.30 0.74 0.30 70 1015.5
20260505002544 10 0.0 0.0 0.20 0.61 0.20 75 1015.5
20260505001520 10 158 0.0 6.4 0.20 0.61 0.20 79 1015.5
20260505000537 10 158 0.0 4.8 0.10 0.51 0.10 87 1015.5
20260504235524 10 0.0 0.0 0.00 0.41 0.00 97 1015.5
20260504234519 10 178 3.2 12.9 0.00 0.41 0.00 97 1015.5
20260504233545 10 0.0 3.2 0.00 0.41 0.00 97 1015.6
20260504232522 10 190 1.6 9.7 0.00 0.41 0.00 97 1015.5
20260504231524 10 140 1.6 12.9 0.00 0.41 0.00 97 1015.5
20260504230522 10 141 4.8 12.9 0.00 0.41 0.00 97 1015.5
20260504225519 10 89 3.2 8.0 0.00 0.41 0.00 97 1015.5
20260504224525 10 77 6.4 17.7 0.00 0.41 0.00 97 1015.8
20260504223520 10 49 6.4 17.7 0.00 0.41 0.00 97 1016.2
20260504222521 11 65 4.8 11.3 0.00 0.41 0.00 97 1016.5
20260504221523 11 15 12.9 25.7 0.00 0.41 0.00 97 1016.4
20260504220518 11 43 8.0 22.5 0.00 0.41 0.00 97 1016.4
20260504215516 10 47 9.7 16.1 0.00 0.41 0.41 97 1016.5
20260504214559 10 60 9.7 17.7 0.00 0.41 0.41 97 1016.5
20260504213516 10 83 8.0 17.7 0.10 0.41 0.41 97 1016.6
20260504212524 10 101 8.0 22.5 0.10 0.41 0.41 97 1016.8
20260504211519 10 15 9.7 29.0 0.10 0.41 0.41 97 1017.3
20260504210523 10 43 11.3 29.0 0.20 0.41 0.41 97 1017.3
20260504205541 9 45 4.8 11.3 0.20 0.41 0.41 97 1017.5
20260504204516 9 125 3.2 16.1 0.20 0.41 0.41 97 1017.5
20260504203523 9 78 3.2 11.3 0.10 0.30 0.30 97 1017.5
20260504202523 9 122 3.2 11.3 0.10 0.30 0.30 97 1017.5
20260504201545 9 300 1.6 9.7 0.10 0.30 0.30 97 1017.5
20260504200524 9 65 1.6 9.7 0.00 0.20 0.20 97 1017.5
20260504195518 9 135 0.0 4.8 0.10 0.20 0.20 97 1018.4
20260504194523 9 122 3.2 6.4 0.10 0.20 0.20 96 1017.7
20260504193520 9 135 0.0 4.8 0.10 0.20 0.20 97 1017.5
20260504192518 10 78 3.2 8.0 0.10 0.20 0.20 97 1017.5
20260504191521 10 124 6.4 17.7 0.10 0.20 0.20 97 1017.5
20260504190521 10 158 1.6 9.7 0.10 0.20 0.20 94 1017.5
20260504185516 10 116 1.6 6.4 0.00 0.10 0.10 90 1017.5
20260504184521 10 0.0 0.0 0.00 0.10 0.10 92 1017.5
20260504183520 10 0.0 0.0 0.00 0.10 0.10 97 1017.5
20260504182516 10 0.0 0.0 0.10 0.10 0.10 97 1017.5